Regional Weather Roundup
Issued by NWS

Home | Current Version | Previous Version | Text Only | Print | Product List | Glossary Off
Versions: 1 2 3 4 5 6 7 8 9 10 11 12 13 14 15 16 17 18 19 20 21 22 23 24 25 26 27 28 29 30 31 32 33 34 35 36 37 38 39 40 41 42 43 44 45 46 47 48 49 50

000
ASUS43 KLOT 240408
RWRIL

ILLINOIS REGIONAL WEATHER ROUNDUP
NATIONAL WEATHER SERVICE CHICAGO/ROMEOVILLE IL
1000 PM CST MON JAN 23 2017

NOTE: "FAIR" INDICATES FEW OR NO CLOUDS BELOW 12,000 FEET WITH NO
SIGNIFICANT WEATHER AND/OR OBSTRUCTIONS TO VISIBILITY.

* THESE STATIONS ARE NOT UNDER NWS QUALITY CONTROL. THEY ALSO MAY NOT
  REPORT WEATHER SUCH AS PRECIPITATION OR FOG.

ILZ001-002-007-009-015-016-024-240500-
NORTHWEST ILLINOIS

CITY           SKY/WX    TMP DP  RH WIND       PRES   REMARKS
MOLINE         CLOUDY    36  31  82 W6        29.86R WCI  31
STERLING*      CLOUDY    36  35  96 CALM      29.85R
SAVANNA*       CLOUDY    36  33  92 CALM      29.85R
$$

ILZ003-004-008-010-011-017-018-240500-
NORTH CENTRAL ILLINOIS

CITY           SKY/WX    TMP DP  RH WIND       PRES   REMARKS
ROCKFORD       CLOUDY    38  33  82 NW5       29.84S WCI  34
FREEPORT*      CLOUDY    35  32  90 CALM      29.85S
ROCHELLE*      CLOUDY    36  34  92 NW5       29.83F WCI  32
DE KALB*       CLOUDY    36  35  95 NW5       29.82F WCI  32
PERU*          CLOUDY    37  32  85 NW6       29.84R WCI  32
$$

ILZ005-006-012>014-019>023-240500-
NORTHEAST ILLINOIS

CITY           SKY/WX    TMP DP  RH WIND       PRES   REMARKS
CHICAGO-OHARE  CLOUDY    38  35  89 N5        29.80S WCI  34
CHICAGO-MIDWAY CLOUDY    40  34  79 N8        29.80S
AURORA         CLOUDY    38  35  89 NW6       29.82S WCI  33
LANSING*       CLOUDY    40  37  89 N7        29.81S
JOLIET*        CLOUDY    40  37  87 CALM      29.83R
WAUKEGAN       CLOUDY    38  35  89 N5        29.80F WCI  34
DUPAGE AIRPORT CLOUDY    39  34  82 NW5       29.81S
KANKAKEE*      CLOUDY    40  34  79 NW3       29.82S
WHEELING       CLOUDY    37  34  89 N5        29.82S WCI  33
MORRIS*        CLOUDY    38  36  91 CALM      29.81S
ROMEOVILLE*    CLOUDY    39  37  91 N6        29.82R
NORTHERLY ISL    N/A     40  34  79 NW5         N/A
$$

LMZ740>746-240500-
SOUTHERN LAKE MICHIGAN

STATION/POSITION SKY/WX   TEMP    WIND        PRES    VSBY  WAVE
                          AIR SEA DIR/SP/G                  HT/PER
                          (F)     (DEG/KT/KT) (MB)    (MI)  (FT/S)
HARRISON CRIB              40     330/  9/ 10   N/A
BURNHAM HARBOR             40     280/  4/  9   N/A
CALUMET HARBOR             38      10/  4/  6 1008.9R
BURNS HARBOR               37     340/  8/ 10 1010.2S
MICHIGAN CITY              37     320/ 14/ 14   N/A
$$

ILZ025>027-034>036-040-047-049-050-058-095>099-240500-
WEST-CENTRAL ILLINOIS

CITY           SKY/WX    TMP DP  RH WIND       PRES   REMARKS
QUINCY         CLOUDY    35  31  85 CALM      29.87S
GALESBURG*     CLOUDY    33  32  96 W8        29.86S WCI  26
MACOMB*        CLOUDY    35  33  92 NW5       29.89R WCI  31
JACKSONVILLE*  CLOUDY    37  32  83 NW5       29.87R WCI  33
PITTSFIELD*    CLOUDY    36  32  85 CALM      29.88S
$$

ILZ028>032-037-038-041>044-048-051>054-059>061-240500-
CENTRAL ILLINOIS

CITY           SKY/WX    TMP DP  RH WIND       PRES   REMARKS
PONTIAC        CLOUDY    39  38  98 NW7       29.84R WCI  34
BLOOMINGTON    CLOUDY    38  36  92 NW9       29.84S WCI  31
DECATUR        CLOUDY    41  35  79 NW12      29.84S
PEORIA         CLOUDY    38  35  89 NW5       29.86R WCI  34
LACON*         CLOUDY    37  35  92 CALM      29.85R
LINCOLN*       CLOUDY    40  37  91 CALM      29.85S
SPRINGFIELD    CLOUDY    40  34  79 NW3       29.86R
TAYLORVILLE    CLOUDY    39  34  81 NW6       29.85R WCI  35
$$

ILZ033-039-045-046-055>057-062-063-240500-
EAST-CENTRAL ILLINOIS

CITY           SKY/WX    TMP DP  RH WIND       PRES   REMARKS
CHAMPAIGN      CLOUDY    39  36  89 NW7       29.83R WCI  34
RANTOUL*       CLOUDY    40  39  94 NW7       29.83R
MATTOON        CLOUDY    39  35  86 NW6       29.82F WCI  35
PARIS*         CLOUDY    39  37  91 NW5       29.82S
$$

ILZ079-100>102-240500-
SOUTHWEST ILLINOIS

CITY           SKY/WX    TMP DP  RH WIND       PRES   REMARKS
ALTON          CLOUDY    39  32  75 NW6       29.86S WCI  35
BELLEVILLE     CLOUDY    40  33  77 NW6       29.86R
CAHOKIA*       CLOUDY    41  32  70 N6        29.87R
SPARTA*        CLOUDY    39  32  75 N7        29.88R WCI  34
$$

ILZ064>066-069>071-074>076-080>082-084>086-088>090-092>094-240500-
SOUTH-CENTRAL ILLINOIS

CITY           SKY/WX    TMP DP  RH WIND       PRES   REMARKS
CARBONDALE     CLOUDY    41  35  79 N7        29.87R
CAIRO*         CLEAR     39  35  85 CALM      29.87S
EFFINGHAM*     CLOUDY    41  37  86 NW7       29.86R
MARION         CLOUDY    41  36  81 N5        29.88R
MT. VERNON     CLOUDY    41  34  76 VRB5      29.87R
CENTRALIA*     CLOUDY    41  36  83 NW8       29.86R
SALEM*         CLOUDY    41  34  76 NW10      29.86R
METROPOLIS*    CLOUDY    42  35  76 CALM      29.87S
$$

ILZ067-068-072-073-078-083-087-091-240500-
SOUTHEAST ILLINOIS

CITY           SKY/WX    TMP DP  RH WIND       PRES   REMARKS
LAWRENCEVILLE  CLOUDY    41  37  86 N15       29.84R
FLORA*         CLOUDY    42  35  77 NW6       29.86R
FAIRFIELD*     CLOUDY    41  35  78 N5        29.85R
HARRISBURG*    CLOUDY    41  36  81 N7        29.87R
ROBINSON*      CLOUDY    39  35  85 N12       29.84S WCI  31
CARMI*         CLOUDY    41  36  80 NW9       29.85R
$$

ABBREVIATIONS USED IN REMARKS
   TC - TEMPERATURE IN CELSIUS
  WCI - WIND CHILL INDEX
   HX - HEAT INDEX
  VSB - VISIBILITY
$$





USA.gov is the U.S. government's official web portal to all federal, state and local government web resources and services.